Miscellaneous Local Product
Issued by NWS Hastings, NE

Home | Current Version | Previous Version | Graphics & Text | Print | Product List | Glossary Off
Versions: 1 2 3 4 5 6 7 8 9 10 11 12 13 14 15 16 17 18 19 20 21 22 23 24 25 26 27 28 29 30 31 32 33 34 35 36 37 38 39 40 41 42 43 44 45 46 47 48 49 50

000
AXUS43 KGID 192002
MISGRI

GID CWA HOURLY WEATHER ROUNDUP
NATIONAL WEATHER SERVICE HASTINGS NE
200 PM CST FRI DEC 19 2014

NOTE: "FAIR" INDICATES FEW OR NO CLOUDS BELOW 12,000 FEET WITH NO
SIGNIFICANT WEATHER AND/OR OBSTRUCTIONS TO VISIBILITY.

...SOUTH CENTRAL NEBRASKA...

CITY           SKY/WX    TMP DP  RH WIND       PRES   REMARKS
GRAND ISLAND   CLOUDY    33  29  85 SW14      30.09F WCI  23
HASTINGS       CLOUDY    35  29  78 S9        30.07F WCI  28
KEARNEY        CLOUDY    30  28  93 S14       30.07F WCI  20
ORD            NOT AVBL
YORK           CLOUDY    32  32 100 S9        30.12F FOG     WCI  24
AURORA         CLOUDY    34  31  90 S10G16    30.09F WCI  26
LEXINGTON      SUNNY     33  29  86 SW5       30.05F WCI  28
HOLDREGE       CLOUDY    29  28  96 S6        30.07F FOG     WCI  23
HEBRON         CLOUDY    33  30  88 S7        30.15F FOG     WCI  27

...NEBRASKA PANHANDLE...

CITY           SKY/WX    TMP DP  RH WIND       PRES   REMARKS
CHADRON        SUNNY     40  22  48 W8        29.97F WCI  34
ALLIANCE       SUNNY     35  25  66 W12       29.96F WCI  27
SCOTTSBLUFF    SUNNY     33  25  72 NW6       29.99F WCI  28
SIDNEY         SUNNY     40  26  57 W15       30.00F WCI  32

...WESTERN AND NORTH CENTRAL NEBRASKA...

CITY           SKY/WX    TMP DP  RH WIND       PRES   REMARKS
VALENTINE      SUNNY     36  25  64 SW5       29.95F WCI  32
AINSWORTH      SUNNY     33  26  75 SW8       29.97F WCI  25
ONEILL         CLOUDY    28  28 100 S7        30.02F FOG     WCI  21
BROKEN BOW     SUNNY     34  28  79 S8        30.01F WCI  27
IMPERIAL       SUNNY     39  27  62 SW9       30.04F WCI  33
NORTH PLATTE   SUNNY     37  26  64 W9        30.02F WCI  30
MCCOOK         SUNNY     44  33  65 SW6       30.04F

...EASTERN NEBRASKA...

CITY           SKY/WX    TMP DP  RH WIND       PRES   REMARKS
NORFOLK        CLOUDY    33  29  85 S13       30.09F WCI  24
SO SIOUX CITY  CLOUDY    34  28  79 S16       30.14F WCI  24
TEKAMAH        CLOUDY    35  29  78 S12       30.16F WCI  27
COLUMBUS       CLOUDY    32  27  80 S13       30.13F WCI  22
ALBION         CLOUDY    31  28  88 S9        30.08F FOG     WCI  23
OMAHA EPPLEY   CLOUDY    34  28  79 S13       30.19F HAZE    WCI  25
OFFUTT AFB     CLOUDY    33  29  85 S10       30.18F WCI  25
MILLARD        CLOUDY    34  30  85 CALM      30.18F
LINCOLN        CLOUDY    34  29  82 S13       30.17F WCI  25
NEBRASKA CITY  CLOUDY    31  31  99 S12       30.19F FOG     WCI  22
BEATRICE       CLOUDY    33  30  91 S12       30.16F WCI  24
FALLS CITY     CLOUDY    30  27  88 S7        30.21F WCI  23

...NORTHERN KANSAS...

CITY           SKY/WX    TMP DP  RH WIND       PRES   REMARKS
GOODLAND       SUNNY     48  24  39 W9        30.06F
HILL CITY      SUNNY     48  27  44 VRB5      30.08F
NORTON         CLEAR     46  27  46 S7        30.05F
PHILLIPSBURG   SUNNY     45  34  65 S6        30.09F
SMITH CENTER   MOSUNNY   41  34  75 S10       30.11F
BELOIT         CLOUDY    36  32  87 SE8       30.14F WCI  29
HAYS           SUNNY     45  30  57 SW14      30.10F
RUSSELL        MOSUNNY   41  36  82 S15       30.10F
CONCORDIA      CLOUDY    32  30  92 S10       30.15F WCI  24
SALINA         CLOUDY    34  30  85 S8        30.18F WCI  27
TOPEKA         CLOUDY    32  28  85 SW5       30.23F WCI  27



USA.gov is the U.S. government's official web portal to all federal, state and local government web resources and services.